When you browse on this site, cookies collect data to enhance your experience and personalize the content and advertising you see.
Visit our Privacy Policy to learn more. By continuing to use the site, you agree to this use of cookies and data.
  • In Germany
  • List of Countries
  • For 7 days
  • Water Temperature
  • Weather Map
  • Weather Widgets
  • user-avatar
    Login

    Hourly Weather Molodezhnyy

    Today, 17 October, Thursday

    Time Temperature Precipitation Wind Pressure Humidity
    00:00 -1°C° 0 mm 3 mps 743 mmHg 79%
    01:00 -1°C° 0 mm 3 mps 743 mmHg 79%
    02:00 -2°C° 0 mm 3 mps 744 mmHg 79%
    03:00 -2°C° 0 mm 3 mps 744 mmHg 80%
    04:00 -2°C° 0 mm 2 mps 745 mmHg 81%
    05:00 -2°C° 0 mm 3 mps 745 mmHg 80%
    06:00 -2°C° 0 mm 3 mps 745 mmHg 80%
    07:00 -2°C° 0 mm 3 mps 745 mmHg 79%
    08:00 -1°C° 0 mm 3 mps 745 mmHg 74%
    09:00 -1°C° 0 mm 3 mps 745 mmHg 70%
    10:00 0°C° 0 mm 3 mps 746 mmHg 65%
    11:00 0°C° 0 mm 3 mps 745 mmHg 65%
    12:00 +1°C° 0 mm 3 mps 745 mmHg 64%
    13:00 +1°C° 0 mm 3 mps 745 mmHg 63%
    14:00 +1°C° 0 mm 3 mps 745 mmHg 65%
    15:00 +1°C° 0 mm 2 mps 745 mmHg 67%
    16:00 +1°C° 0 mm 2 mps 745 mmHg 69%
    17:00 +1°C° 0 mm 2 mps 745 mmHg 73%
    18:00 +1°C° 0 mm 1 mps 745 mmHg 77%
    19:00 +1°C° 0 mm 1 mps 744 mmHg 80%
    20:00 +1°C° 0.1 mm 1 mps 744 mmHg 86%
    21:00 +1°C° 0.1 mm 1 mps 744 mmHg 91%
    22:00 0°C° 0.1 mm 1 mps 743 mmHg 96%
    23:00 0°C° 0.3 mm 1 mps 743 mmHg 97%

    Tomorrow, 18 October, Friday

    Time Temperature Precipitation Wind Pressure Humidity
    00:00 -2°C° 0.3 mm 2 mps 742 mmHg 97%
    01:00 -2°C° 0.3 mm 2 mps 741 mmHg 97%
    02:00 -2°C° 0.4 mm 2 mps 741 mmHg 97%
    03:00 -2°C° 0.4 mm 2 mps 741 mmHg 97%
    04:00 -2°C° 0.4 mm 2 mps 740 mmHg 97%
    05:00 -2°C° 0.2 mm 2 mps 740 mmHg 96%
    06:00 -2°C° 0.2 mm 2 mps 740 mmHg 96%
    07:00 -2°C° 0.2 mm 2 mps 739 mmHg 96%
    08:00 -1°C° 0.2 mm 3 mps 739 mmHg 95%
    09:00 -1°C° 0.2 mm 3 mps 739 mmHg 94%
    10:00 -1°C° 0.2 mm 3 mps 739 mmHg 93%
    11:00 0°C° 0.2 mm 3 mps 740 mmHg 93%
    12:00 0°C° 0.2 mm 3 mps 740 mmHg 94%
    13:00 -1°C° 0.2 mm 4 mps 740 mmHg 94%
    14:00 -2°C° 0.2 mm 4 mps 740 mmHg 94%
    15:00 -2°C° 0.2 mm 4 mps 740 mmHg 94%
    16:00 -2°C° 0.2 mm 4 mps 741 mmHg 94%
    17:00 -2°C° 0.1 mm 4 mps 741 mmHg 93%
    18:00 -3°C° 0.1 mm 4 mps 742 mmHg 91%
    19:00 -3°C° 0.1 mm 4 mps 742 mmHg 90%
    20:00 -4°C° 0 mm 4 mps 743 mmHg 89%
    21:00 -4°C° 0 mm 3 mps 743 mmHg 87%
    22:00 -5°C° 0 mm 3 mps 744 mmHg 86%
    23:00 -6°C° 0 mm 3 mps 744 mmHg 87%

    Day after tomorrow, 19 October, Saturday

    Time Temperature Precipitation Wind Pressure Humidity
    00:00 -6°C° 0 mm 3 mps 745 mmHg 88%
    01:00 -6°C° 0 mm 2 mps 745 mmHg 89%
    02:00 -6°C° 0 mm 2 mps 746 mmHg 89%
    03:00 -7°C° 0 mm 2 mps 746 mmHg 89%
    04:00 -7°C° 0 mm 2 mps 747 mmHg 89%
    05:00 -7°C° 0 mm 2 mps 747 mmHg 89%
    06:00 -7°C° 0 mm 2 mps 748 mmHg 89%
    07:00 -7°C° 0 mm 2 mps 748 mmHg 89%
    08:00 -6°C° 0 mm 2 mps 748 mmHg 82%
    09:00 -5°C° 0 mm 2 mps 749 mmHg 75%
    10:00 -3°C° 0 mm 2 mps 749 mmHg 68%
    11:00 -3°C° 0 mm 2 mps 749 mmHg 65%
    12:00 -2°C° 0 mm 2 mps 750 mmHg 62%
    13:00 -2°C° 0 mm 2 mps 750 mmHg 60%
    14:00 -2°C° 0 mm 2 mps 750 mmHg 63%
    15:00 0°C° 0 mm 1 mps 750 mmHg 66%
    16:00 -1°C° 0 mm 1 mps 750 mmHg 70%
    17:00 -2°C° 0 mm 1 mps 750 mmHg 74%
    18:00 -3°C° 0 mm 1 mps 750 mmHg 77%
    19:00 -4°C° 0 mm 1 mps 751 mmHg 81%
    20:00 -4°C° 0 mm 1 mps 751 mmHg 83%
    21:00 -4°C° 0 mm 1 mps 751 mmHg 84%
    22:00 -4°C° 0 mm 1 mps 751 mmHg 85%
    23:00 -6°C° 0 mm 1 mps 751 mmHg 87%

    20 October, Sunday

    Time Temperature Precipitation Wind Pressure Humidity
    00:00 -6°C° 0 mm 1 mps 751 mmHg 88%
    01:00 -6°C° 0 mm 1 mps 751 mmHg 89%
    02:00 -6°C° 0 mm 1 mps 751 mmHg 90%
    03:00 -6°C° 0 mm 1 mps 751 mmHg 91%
    04:00 -6°C° 0 mm 1 mps 751 mmHg 92%
    05:00 -7°C° 0 mm 2 mps 751 mmHg 92%
    06:00 -7°C° 0 mm 2 mps 751 mmHg 92%
    07:00 -7°C° 0 mm 2 mps 751 mmHg 92%
    08:00 -6°C° 0 mm 2 mps 751 mmHg 86%
    09:00 -5°C° 0 mm 2 mps 751 mmHg 79%
    10:00 -4°C° 0 mm 3 mps 751 mmHg 73%
    11:00 -2°C° 0 mm 3 mps 750 mmHg 72%
    12:00 -1°C° 0 mm 3 mps 750 mmHg 72%
    13:00 0°C° 0 mm 3 mps 750 mmHg 71%
    14:00 0°C° 0 mm 3 mps 749 mmHg 75%
    15:00 +1°C° 0 mm 2 mps 749 mmHg 79%
    16:00 +1°C° 0 mm 2 mps 749 mmHg 83%
    17:00 +1°C° 0 mm 2 mps 749 mmHg 85%
    18:00 0°C° 0 mm 3 mps 749 mmHg 87%
    19:00 0°C° 0 mm 3 mps 748 mmHg 89%
    20:00 0°C° 0 mm 3 mps 748 mmHg 89%
    21:00 0°C° 0 mm 3 mps 747 mmHg 89%
    22:00 +1°C° 0 mm 3 mps 747 mmHg 89%
    23:00 0°C° 0 mm 4 mps 747 mmHg 88%

    21 October, Monday

    Time Temperature Precipitation Wind Pressure Humidity
    00:00 0°C° 0 mm 4 mps 746 mmHg 88%
    01:00 0°C° 0 mm 4 mps 746 mmHg 87%
    02:00 0°C° 0 mm 4 mps 745 mmHg 87%
    03:00 0°C° 0 mm 4 mps 744 mmHg 86%
    04:00 0°C° 0 mm 4 mps 744 mmHg 85%
    05:00 +1°C° 0.1 mm 5 mps 743 mmHg 86%
    06:00 +1°C° 0.1 mm 5 mps 743 mmHg 87%
    07:00 +1°C° 0.1 mm 5 mps 742 mmHg 88%
    08:00 +2°C° 0.1 mm 5 mps 742 mmHg 89%
    09:00 +2°C° 0.1 mm 5 mps 742 mmHg 89%
    10:00 +3°C° 0.1 mm 4 mps 741 mmHg 90%
    11:00 +4°C° 0.1 mm 4 mps 741 mmHg 91%
    12:00 +4°C° 0.1 mm 4 mps 741 mmHg 92%
    13:00 +4°C° 0.1 mm 4 mps 741 mmHg 92%
    14:00 +4°C° 0.3 mm 4 mps 741 mmHg 93%
    15:00 +4°C° 0.3 mm 3 mps 741 mmHg 94%
    16:00 +4°C° 0.3 mm 3 mps 741 mmHg 95%
    17:00 +4°C° 0.2 mm 3 mps 741 mmHg 95%
    18:00 +4°C° 0.2 mm 3 mps 741 mmHg 95%
    19:00 +4°C° 0.2 mm 3 mps 740 mmHg 96%
    20:00 +4°C° 0.1 mm 3 mps 740 mmHg 96%
    21:00 +5°C° 0.1 mm 2 mps 740 mmHg 96%
    22:00 +5°C° 0.1 mm 2 mps 739 mmHg 97%
    23:00 +5°C° 0.4 mm 2 mps 738 mmHg 97%

    22 October, Tuesday

    Time Temperature Precipitation Wind Pressure Humidity
    00:00 +4°C° 0.4 mm 3 mps 738 mmHg 96%
    01:00 +4°C° 0.4 mm 3 mps 737 mmHg 96%
    02:00 +5°C° 1 mm 3 mps 736 mmHg 96%
    03:00 +5°C° 1 mm 4 mps 735 mmHg 95%
    04:00 +6°C° 1 mm 4 mps 734 mmHg 95%
    05:00 +6°C° 1.2 mm 4 mps 733 mmHg 93%
    06:00 +7°C° 1.2 mm 5 mps 733 mmHg 92%
    07:00 +7°C° 1.2 mm 5 mps 732 mmHg 91%
    08:00 +7°C° 0.1 mm 5 mps 732 mmHg 89%
    09:00 +8°C° 0.1 mm 5 mps 732 mmHg 88%
    10:00 +8°C° 0.1 mm 5 mps 732 mmHg 86%
    11:00 +8°C° 0 mm 5 mps 733 mmHg 83%
    12:00 +8°C° 0 mm 5 mps 733 mmHg 81%
    13:00 +8°C° 0 mm 5 mps 734 mmHg 78%
    14:00 +8°C° 0 mm 5 mps 734 mmHg 80%
    15:00 +7°C° 0 mm 4 mps 734 mmHg 82%
    16:00 +8°C° 0 mm 3 mps 735 mmHg 84%
    17:00 +7°C° 0 mm 3 mps 735 mmHg 85%
    18:00 +5°C° 0 mm 3 mps 735 mmHg 86%
    19:00 +4°C° 0 mm 3 mps 736 mmHg 87%
    20:00 +4°C° 0 mm 2 mps 736 mmHg 89%
    21:00 +3°C° 0 mm 2 mps 736 mmHg 91%
    22:00 +3°C° 0 mm 2 mps 736 mmHg 93%
    23:00 +3°C° 0 mm 2 mps 736 mmHg 93%
    Show more